[[[{"header":{"parameterUnit":"kt","parameterCategory":2,"dx":1,"dy":1,"la1":30.253999710083008,"la2":30.299108505249023,"lo1":-89.0895004272461,"lo2":-89.04439544677734,"nx":28,"ny":28,"refTime":"2022-10-21T21:00:00:Z","depth":0,"parameterNumber":1,"parameterNumberName":"U-component_of_WINDS"},"data":[-6.9095,-6.9246,-6.9292,-6.9485,-6.9559,-6.9699,-6.9764,-6.9853,-6.9936,-7.011,-7.0218,-7.0281,-7.0382,-7.0523,-7.0643,-7.0669,-7.0715,-7.0735,-7.0761,-7.063,-7.0615,-7.0601,-7.0566,-7.0746,-7.0746,-7.0888,-7.089,-7.0891,-6.8995,-6.9069,-6.9186,-6.9329,-6.9429,-6.9437,-6.9553,-6.9635,-6.9761,-6.9865,-6.9974,-7.0131,-7.0261,-7.0358,-7.0492,-7.0564,-7.0575,-7.0596,-7.059,-7.0605,-7.0468,-7.0431,-7.0585,-7.0585,-7.0585,-7.0585,-7.0585,-7.0585,-6.8825,-6.8913,-6.9026,-6.9153,-6.9238,-6.9334,-6.9427,-6.9501,-6.9616,-6.976,-6.9794,-6.9937,-7.005,-7.0234,-7.0307,-7.0421,-7.0405,-7.0443,-7.0452,-7.0459,-7.0461,-7.0244,-7.0446,-7.0446,-7.0446,-7.0446,-7.0445,0,-6.8713,-6.8745,-6.8859,-6.8988,-6.9083,-6.9187,-6.929,-6.9349,-6.9434,-6.9525,-6.9662,-6.9748,-6.992,-7.0053,-7.0189,-7.0258,-7.0275,-7.0283,-7.0309,-7.0291,-7.0259,-7.0275,-7.0046,-7.0275,-7.0274,-7.0273,-7.0273,-7.0272,-6.8541,-6.8641,-6.8781,-6.8856,-6.8923,-6.9043,-6.9123,-6.919,-6.9273,-6.9411,-6.9487,-6.9622,-6.9733,-6.9945,-7.0031,-7.0159,-7.0168,-7.025,-7.0187,-7.0168,-7.0166,-7.0157,-7.0167,-7.0259,-7.0261,-7.0262,-7.0263,0,-6.844,-6.8514,-6.8683,-6.8813,-6.8849,-6.8949,-6.9061,-6.9153,-6.9215,-6.9351,-6.9387,-6.9484,-6.9617,-6.9691,-6.9858,-6.9892,-7.0059,-7.0067,-7.002,-7.0024,-7.0103,-7.0093,-7.0352,-7.0388,-7.0206,-7.0208,-7.0209,0,-6.8321,-6.8449,-6.8552,-6.8646,-6.8791,-6.8854,-6.8996,-6.9063,-6.916,-6.9268,-6.9299,-6.94,-6.9478,-6.959,-6.964,-6.979,-6.9823,-6.9856,-6.9867,-6.9851,-6.9847,-6.9893,-6.9882,-6.9893,-6.9891,-6.989,-6.9889,0,-6.8152,-6.8358,-6.8512,-6.857,-6.8721,-6.8792,-6.8859,-6.8968,-6.9047,-6.9161,-6.9212,-6.9341,-6.9411,-6.9511,-6.9573,-6.9528,-6.976,-6.971,-6.9794,-6.9792,-6.9837,-6.9833,-7.0047,-6.9887,-6.9887,-6.9886,-6.9886,0,-6.8066,-6.8179,-6.8391,-6.8517,-6.8568,-6.867,-6.88,-6.8904,-6.9017,-6.9055,-6.9146,-6.9174,-6.9312,-6.9257,-6.9449,-6.9371,-6.9439,-6.9484,-6.9492,-6.9505,-6.9439,-6.9546,-6.9746,-6.9768,-6.9522,-6.9519,-6.9517,0,-6.785,-6.8084,-6.8139,-6.834,-6.8457,-6.8482,-6.8597,-6.8696,-6.8756,-6.8865,-6.8931,-6.9055,-6.903,-6.9078,-6.9164,-6.9237,-6.9339,-6.9226,-6.938,-6.9385,-6.9345,-6.9531,-6.954,-6.9695,-6.9479,-6.9483,-6.9486,0,-6.7691,-6.7873,-6.7905,-6.7973,-6.8114,-6.8213,-6.8345,-6.8481,-6.855,-6.8659,-6.877,-6.8948,-6.8935,-6.9015,-6.9051,-6.9137,-6.9272,-6.9111,-6.9115,-6.9135,-6.9467,-6.9475,-6.95,-6.9278,-6.9282,-6.9286,-6.9456,0,-6.7539,-6.7666,-6.7757,-6.7907,-6.7995,-6.8125,-6.82,-6.8283,-6.8308,-6.8367,-6.8534,-6.8635,-6.8773,-6.8823,-6.8849,-6.9021,-6.9003,-6.8988,-6.8935,-6.9058,-6.9116,-6.9139,-6.8844,-6.8843,-6.8842,-6.8841,0,0,-6.7313,-6.7495,-6.755,-6.768,-6.7757,-6.778,-6.7912,-6.799,-6.8147,-6.8199,-6.8172,-6.8435,-6.8517,-6.8711,-6.8756,-6.8813,-6.885,-6.8804,-6.9,-6.9017,-6.9034,-6.9094,-6.9118,-6.884,-6.8839,-6.8839,-6.8839,0,-6.7271,-6.7355,-6.7485,-6.7568,-6.7693,-6.7749,-6.778,-6.7907,-6.7951,-6.8115,-6.813,-6.8239,-6.8448,-6.8532,-6.8602,-6.8784,-6.8788,-6.8821,-6.8892,-6.8989,-6.9007,-6.9024,-6.9086,-6.9108,-6.8837,-6.8837,-6.8837,0,-6.7126,-6.7219,-6.729,-6.7467,-6.7548,-6.7669,-6.7634,-6.7763,-6.7853,-6.787,-6.8032,-6.8097,-6.8217,-6.8391,-6.8473,-6.8449,-6.8726,-6.8653,-6.8661,-6.867,-6.8768,-6.879,-6.8809,-6.8547,-6.8546,-6.8545,0,0,-6.7079,-6.7197,-6.7317,-6.7463,-6.7513,-6.7598,-6.767,-6.7701,-6.7808,-6.7851,-6.7934,-6.8037,-6.8159,-6.8238,-6.8356,-6.8538,-6.8566,-6.8614,-6.8628,-6.8639,-6.8654,-6.8754,-6.8776,-6.854,-6.854,-6.854,0,0,-6.7057,-6.7201,-6.7207,-6.7385,-6.7486,-6.7613,-6.77,-6.771,-6.7823,-6.7816,-6.7876,-6.7906,-6.8071,-6.8134,-6.8059,-6.8338,-6.8286,-6.8306,-6.829,-6.8308,-6.8322,-6.8301,-6.8034,0,0,0,0,0,-6.7051,-6.7183,-6.7187,-6.7228,-6.7451,-6.7611,-6.764,-6.7692,-6.7653,-6.7721,-6.7792,-6.7792,-6.8106,-6.804,-6.808,-6.8162,-6.8475,-6.8487,-6.8498,-6.852,-6.8538,-6.8554,0,0,0,0,0,0,-6.7068,-6.7118,-6.7184,-6.7315,-6.7366,-6.7607,-6.7553,-6.7571,-6.7647,-6.7645,-6.7779,-6.7797,-6.7844,-6.8023,-6.8059,-6.8136,-6.8023,-6.848,-6.849,-6.8498,-6.8526,-6.8541,-6.8554,0,0,0,0,0,-6.7081,-6.7121,-6.7465,-6.7314,-6.7358,-6.7458,-6.7548,-6.7563,-6.7623,-6.7733,-6.7751,-6.7655,-6.7845,-6.7878,-6.8045,-6.8118,-6.7999,-6.8012,-6.8486,-6.8494,-6.8501,-6.8534,0,0,0,0,0,0,-6.7091,-6.7136,-6.7475,-6.749,-6.7267,-6.7446,-6.7476,-6.7556,-6.7707,-6.7726,-6.7612,-6.7608,-6.7847,-6.7872,-6.7898,-6.8109,-6.7979,-6.7992,-6.8,-6.8492,-6.8498,-6.8503,0,0,0,0,0,0,-6.7115,-6.7149,-6.7483,-6.7421,-6.743,-6.7434,-6.7461,-6.761,-6.7709,-6.7578,-6.7579,-6.7608,-6.7809,-6.7869,-6.7889,-6.812,-6.7964,-6.7977,-6.7985,-6.7991,-6.8497,-6.8502,0,0,0,0,0,0,-6.713,-6.7159,-6.7418,-6.7424,-6.7432,-6.7608,-6.7567,-6.7792,-6.7656,-6.757,-6.7645,-6.764,-6.7806,-6.7827,-6.7883,-6.8105,-6.8116,-6.7965,-6.7973,-6.7979,-6.7983,0,0,0,0,0,0,0,-6.7142,-6.6934,-6.7384,-6.7427,-6.7433,-6.7632,-6.7637,-6.7641,-6.7654,-6.765,-6.7646,-6.7642,-6.7892,-6.7906,-6.792,-6.8093,0,0,-6.7963,-6.7969,0,0,0,0,0,0,0,0,-6.6923,-6.6931,-6.7385,-6.7388,-6.7391,-6.7633,-6.7636,-6.764,-6.7654,-6.765,-6.7647,-6.7644,-6.7896,-6.7907,-6.7918,0,0,0,0,0,0,0,0,0,0,0,0,0,0,0,-6.7385,-6.7387,0,-6.7634,-6.7636,-6.7639,-6.7653,-6.765,-6.7648,-6.7645,-6.7899,-6.7908,-6.7918,0,0,0,0,0,0,0,0,0,0,0,0,0,0,0,0,0,0,0,0,0,0,0,0,0,0,0,0,0,0,0,0,0,0,0,0,0,0,0,0,0,0,0,0,0,0,0,0,0,0,0,0,0,0,0,0,0,0,0,0,0,0,0,0,0,0,0,0,0]}],[{"header":{"parameterUnit":"kt","parameterCategory":2,"dx":1,"dy":1,"la1":30.253999710083008,"la2":30.299108505249023,"lo1":-89.0895004272461,"lo2":-89.04439544677734,"nx":28,"ny":28,"refTime":"2022-10-21T21:00:00:Z","depth":0,"parameterNumber":2,"parameterNumberName":"V-component_of_WINDS"},"data":[8.6997,8.7057,8.7043,8.7105,8.7103,8.7142,8.7151,8.7162,8.7167,8.7212,8.7235,8.7227,8.7225,8.7249,8.7273,8.7268,8.7277,8.731,8.7298,8.7167,8.7148,8.7129,8.7112,8.7314,8.7314,8.7434,8.7436,8.7437,8.6905,8.6903,8.6932,8.695,8.6974,8.6935,8.6945,8.6967,8.7003,8.701,8.7032,8.707,8.7098,8.7084,8.7108,8.7135,8.7116,8.7143,8.7138,8.7138,8.6998,8.6981,8.7158,8.7158,8.7157,8.7157,8.7157,8.7157,8.6732,8.6769,8.677,8.68,8.6805,8.6817,8.6849,8.6837,8.6864,8.6887,8.6864,8.6904,8.6907,8.6927,8.693,8.696,8.6928,8.6951,8.6956,8.6961,8.6969,8.6793,8.6964,8.6964,8.6963,8.6963,8.6962,0,8.6599,8.6584,8.661,8.6632,8.6653,8.6668,8.6679,8.6699,8.6659,8.6684,8.6717,8.6733,8.6766,8.6794,8.6813,8.681,8.6767,8.6762,8.6777,8.6786,8.6793,8.6787,8.6557,8.6756,8.6754,8.6753,8.6752,8.6751,8.642,8.6465,8.6459,8.6479,8.648,8.6514,8.653,8.6492,8.6511,8.6518,8.6552,8.6581,8.6601,8.6657,8.6639,8.6662,8.6641,8.6718,8.6643,8.6653,8.6637,8.6634,8.6637,8.6731,8.6734,8.6736,8.6738,0,8.632,8.6294,8.6358,8.6346,8.6345,8.6394,8.6383,8.6418,8.64,8.6446,8.6454,8.6426,8.6459,8.6428,8.646,8.6442,8.6521,8.6502,8.652,8.6513,8.6577,8.657,8.6794,8.6821,8.6616,8.6618,8.6619,0,8.6155,8.6216,8.6172,8.621,8.6276,8.6235,8.6301,8.6292,8.6292,8.6327,8.6275,8.6309,8.6264,8.6294,8.6268,8.6328,8.6335,8.6323,8.6315,8.6325,8.6326,8.633,8.6319,8.6298,8.6297,8.6296,8.6295,0,8.5998,8.6046,8.6109,8.6115,8.6106,8.6137,8.6135,8.6133,8.6149,8.6165,8.6174,8.6197,8.6208,8.6226,8.6191,8.6142,8.6265,8.6189,8.6252,8.6253,8.6277,8.6275,8.6486,8.6294,8.6294,8.6293,8.6293,0,8.5858,8.5875,8.5971,8.5962,8.5975,8.6017,8.6034,8.6063,8.6066,8.6051,8.6063,8.6022,8.6073,8.6001,8.6069,8.6014,8.6028,8.6022,8.6026,8.6024,8.5942,8.606,8.6268,8.6287,8.603,8.6027,8.6025,0,8.5684,8.5774,8.5736,8.5829,8.5865,8.58,8.5847,8.585,8.5834,8.5862,8.5845,8.5878,8.5817,8.5822,8.5861,8.5843,8.5916,8.5833,8.5871,8.5873,8.5868,8.6061,8.6097,8.6227,8.5997,8.6,8.6002,0,8.5545,8.5532,8.5551,8.5554,8.5551,8.5581,8.5635,8.5656,8.5677,8.5686,8.5728,8.5774,8.5729,8.5738,8.5706,8.5748,8.5866,8.5693,8.5692,8.5722,8.5981,8.6015,8.6037,8.5835,8.5839,8.5841,8.598,0,8.5334,8.5374,8.5425,8.5435,8.5453,8.5509,8.5472,8.5496,8.5463,8.5444,8.5507,8.5499,8.5521,8.5538,8.5506,8.5613,8.5588,8.554,8.5461,8.559,8.5634,8.5652,8.5399,8.5396,8.5394,8.5393,0,0,8.5172,8.5228,8.5183,8.5232,8.5244,8.5174,8.5236,8.524,8.5248,8.5257,8.5215,8.5277,8.5273,8.5351,8.5389,8.5399,8.5413,8.5369,8.553,8.5545,8.556,8.5608,8.5628,8.5389,8.5388,8.5387,8.5387,0,8.5085,8.5083,8.5146,8.5147,8.5147,8.5123,8.5139,8.5126,8.5116,8.5176,8.5115,8.5148,8.5199,8.5201,8.5209,8.5361,8.531,8.5371,8.5463,8.551,8.5529,8.5545,8.5596,8.5615,8.5382,8.5382,8.5382,0,8.4938,8.4929,8.4955,8.4978,8.4977,8.5016,8.4926,8.4971,8.4999,8.4916,8.4977,8.4967,8.4967,8.5047,8.5082,8.5043,8.5219,8.5158,8.517,8.5171,8.5215,8.5237,8.5257,8.4997,8.4996,8.4995,0,0,8.4868,8.4905,8.488,8.4957,8.496,8.4925,8.4941,8.4908,8.4909,8.491,8.4895,8.4898,8.4927,8.4946,8.4971,8.5065,8.506,8.5112,8.513,8.5145,8.5154,8.5202,8.5224,8.499,8.499,8.499,0,0,8.4833,8.4807,8.4773,8.4857,8.4861,8.484,8.4888,8.4844,8.4862,8.4851,8.4797,8.4795,8.4869,8.4862,8.4806,8.4942,8.4866,8.4879,8.4943,8.4965,8.4983,8.4981,8.471,0,0,0,0,0,8.4724,8.4811,8.478,8.4788,8.4816,8.4858,8.4861,8.4817,8.4765,8.4804,8.4785,8.4731,8.482,8.477,8.4779,8.4839,8.4932,8.4942,8.4952,8.5057,8.508,8.5101,0,0,0,0,0,0,8.4727,8.4737,8.4777,8.4761,8.4766,8.4854,8.4755,8.4745,8.4759,8.4748,8.4736,8.473,8.4694,8.4762,8.4771,8.483,8.4707,8.4936,8.4945,8.4953,8.5065,8.5084,8.5101,0,0,0,0,0,8.4729,8.4737,8.4793,8.4759,8.4764,8.4728,8.4751,8.4742,8.4752,8.4722,8.4714,8.4718,8.4697,8.4701,8.4767,8.4827,8.4701,8.4704,8.4942,8.4949,8.4955,8.5074,0,0,0,0,0,0,8.473,8.4729,8.4793,8.4793,8.4722,8.4722,8.472,8.474,8.4724,8.4717,8.47,8.4692,8.47,8.4703,8.4706,8.4828,8.4695,8.4699,8.4701,8.4947,8.4952,8.4957,0,0,0,0,0,0,8.4724,8.473,8.4793,8.4749,8.4743,8.4717,8.4715,8.4765,8.4725,8.4703,8.4696,8.4697,8.4694,8.4704,8.4707,8.4786,8.4691,8.4695,8.4697,8.4698,8.4951,8.4956,0,0,0,0,0,0,8.4726,8.473,8.4748,8.4744,8.4739,8.4735,8.4759,8.479,8.4688,8.4705,8.4677,8.4672,8.4698,8.4699,8.4708,8.4786,8.4786,8.4691,8.4694,8.4695,8.4696,0,0,0,0,0,0,0,8.4727,8.4707,8.4794,8.474,8.4736,8.4792,8.4792,8.4792,8.4686,8.4682,8.4678,8.4674,8.4672,8.4676,8.468,8.4786,0,0,8.4691,8.4693,0,0,0,0,0,0,0,0,8.4704,8.4706,8.4794,8.4794,8.4794,8.4792,8.4792,8.4792,8.4686,8.4682,8.4679,8.4676,8.4673,8.4676,8.4679,0,0,0,0,0,0,0,0,0,0,0,0,0,0,0,8.4794,8.4794,0,8.4792,8.4792,8.4792,8.4685,8.4682,8.468,8.4677,8.4674,8.4676,8.4679,0,0,0,0,0,0,0,0,0,0,0,0,0,0,0,0,0,0,0,0,0,0,0,0,0,0,0,0,0,0,0,0,0,0,0,0,0,0,0,0,0,0,0,0,0,0,0,0,0,0,0,0,0,0,0,0,0,0,0,0,0,0,0,0,0,0,0,0,0]}]]]